Theta_e
327 326 325 326 325 327 327 327 329 333 336 336 339 338 337 339 351 353 352 351 351 350 351 351 350 350 344 342 339 337 334 334 326 330 335 336 334 334 335 335 334 333 327
321 320 322 324 324 323 322 326 329 328 332 334 336 338 338 336 347 351 351 351 350 349 351 350 349 349 345 343 341 336 336 335 330 327 332 331 330 332 334 333 335 338 334
318 317 321 323 324 322 321 327 329 328 329 330 332 335 337 337 339 350 353 353 350 351 351 349 348 346 343 342 340 337 335 336 334 329 328 330 329 331 330 331 332 330 330
317 318 319 322 322 322 322 322 325 325 325 328 330 334 337 337 340 346 351 352 348 349 349 350 347 344 343 342 338 338 336 334 333 329 329 327 327 331 328 327 326 329 328
318 317 319 322 321 319 318 319 321 322 325 327 328 331 335 338 339 344 350 351 347 347 348 347 346 342 335 337 339 337 336 332 330 329 327 327 324 326 322 327 326 325 327
316 316 317 317 317 317 317 317 317 321 324 326 327 329 331 338 323 318 340 348 347 345 345 345 345 331 325 319 319 320 333 333 330 328 327 325 325 326 327 325 323 320 317
314 314 315 315 315 315 315 315 316 317 322 323 325 327 330 337 317 309 321 347 346 345 345 343 336 336 329 327 316 317 316 318 324 332 328 328 326 327 326 326 324 322 323
313 313 313 314 314 314 314 312 315 317 319 321 323 326 330 336 314 308 315 346 344 344 344 343 338 335 335 333 331 330 331 328 326 329 332 330 331 331 330 329 328 326 324
310 311 311 311 311 311 310 312 315 315 316 318 320 326 330 335 309 305 322 343 342 343 344 342 341 336 313 313 332 330 329 326 308 306 311 308 309 309 321 330 324 323 320
308 309 311 312 311 311 312 312 314 314 314 318 318 324 325 336 306 305 328 341 339 340 340 338 319 331 306 304 333 330 328 327 323 322 322 317 317 317 312 331 327 323 321
310 311 310 311 311 312 313 313 313 313 315 316 320 323 332 337 322 305 317 341 340 337 335 333 328 306 304 303 312 333 329 331 323 328 329 330 330 329 329 330 330 326 322
310 309 310 310 312 312 312 311 312 314 314 316 317 326 335 337 314 308 312 320 323 334 333 333 315 299 299 301 313 304 307 319 331 328 328 327 327 327 328 329 331 329 329
308 308 308 310 310 310 312 312 313 316 316 316 321 328 332 325 316 305 308 309 313 332 334 316 298 298 299 303 301 303 304 330 329 327 325 324 327 327 327 328 329 329 326
307 309 309 308 309 311 314 314 315 316 317 320 327 329 328 324 325 324 317 314 307 310 305 308 309 310 312 312 314 312 327 330 327 326 326 326 326 325 325 326 325 324 324
307 308 308 309 309 311 312 315 317 319 323 329 330 330 328 327 327 319 323 327 327 318 319 321 322 323 323 324 325 326 328 327 326 327 326 323 323 323 322 324 322 322 320
307 310 314 319 315 314 313 312 297 309 305 309 313 326 328 311 305 303 304 303 304 306 323 324 323 324 323 322 323 324 326 322 326 326 325 325 323 321 320 321 322 321 319
310 315 317 321 320 319 319 320 316 308 300 300 302 304 305 301 298 300 302 302 302 308 325 326 325 324 323 322 322 323 324 326 328 326 326 325 323 321 317 319 320 321 320
312 304 318 324 325 325 325 324 323 322 317 311 298 302 296 297 297 298 298 307 319 320 328 326 324 323 324 323 322 324 323 326 326 325 322 324 323 321 319 320 320 319 318
314 319 319 321 327 324 326 325 322 318 313 311 311 303 297 295 296 298 304 326 324 326 327 327 326 326 324 323 322 323 323 324 322 324 324 323 323 322 319 319 320 304 307
316 305 309 319 326 328 325 323 322 322 321 319 316 314 317 318 323 325 328 328 327 327 327 326 325 326 325 323 323 323 323 321 323 323 323 323 323 322 320 319 320 319 318
317 320 303 324 325 325 325 325 325 323 320 318 317 315 299 324 324 320 318 318 322 324 323 324 323 323 325 325 324 324 323 323 323 322 321 322 321 320 322 321 320 319 319
318 321 326 326 326 325 326 326 324 321 320 320 318 308 295 319 314 311 308 306 306 311 312 313 313 312 313 314 320 322 321 320 322 321 320 320 319 321 322 320 318 319 318
315 321 326 327 326 314 323 323 323 322 320 320 318 313 311 308 304 301 299 300 299 298 300 302 303 302 304 304 307 309 318 318 320 322 320 319 322 322 321 320 319 316 314
319 326 326 327 327 323 322 320 319 310 317 314 311 308 303 299 297 297 295 296 296 295 295 296 295 296 299 299 301 302 302 306 315 320 321 323 322 317 321 319 317 317 313
324 324 326 325 321 320 319 317 314 313 311 309 304 300 297 295 294 293 293 293 293 292 291 292 293 293 293 293 294 296 289 288 303 299 315 316 312 310 311 309 307 306 306
326 324 321 320 319 317 314 310 308 306 303 302 299 296 294 292 292 291 291 290 289 289 289 289 289 289 290 289 288 286 287 289 295 292 306 306 304 304 302 301 300 300 301
Wind_Speed
5 4 4 4 6 7 7 9 10 10 11 12 13 13 13 15 16 15 15 15 17 14 12 11 12 8 4 4 4 3 2 2 2 2 3 4 2 2 3 1 6 5 4
7 7 7 6 5 7 10 10 8 11 13 13 15 17 15 15 15 17 17 16 17 16 13 12 12 8 7 6 4 5 4 3 3 4 3 2 1 2 2 2 1 3 4
7 7 7 6 5 6 8 12 9 11 13 15 16 17 16 16 17 17 18 18 16 15 14 12 11 10 9 5 4 5 4 3 2 3 3 3 1 2 1 1 2 4 3
11 10 8 6 6 7 8 11 13 13 15 17 16 18 18 16 18 17 18 17 15 14 14 12 10 11 10 7 6 5 4 3 4 4 4 3 2 2 2 2 2 2 3
9 10 9 7 7 9 11 12 14 16 16 16 18 17 18 16 15 18 16 16 15 13 14 10 8 9 11 10 5 5 6 4 3 3 4 3 3 3 4 3 3 2 3
12 14 13 14 12 10 10 13 15 18 16 16 17 17 18 16 18 18 15 15 13 14 12 11 8 10 9 14 13 8 4 5 3 4 4 4 6 4 5 4 4 3 2
12 15 15 15 16 13 12 14 16 17 16 16 18 18 20 21 18 14 21 14 13 12 12 11 9 8 11 9 10 11 8 10 6 4 4 4 5 5 5 5 6 5 2
14 14 15 15 16 14 12 16 16 15 15 15 16 18 19 18 16 20 19 15 13 15 12 12 9 12 10 10 8 7 7 6 5 3 5 3 3 7 7 5 6 4 4
16 17 18 19 18 18 20 21 16 12 14 15 16 20 20 19 17 18 21 15 13 15 13 11 9 12 12 14 9 7 6 5 6 9 9 6 3 3 5 6 5 6 3
18 20 18 17 18 18 18 17 13 13 17 14 18 19 24 22 17 20 22 13 16 11 12 10 13 13 16 13 8 8 6 8 8 5 3 4 4 4 7 4 5 6 4
19 17 18 18 18 19 19 15 14 16 17 16 19 19 22 23 14 19 23 15 13 12 11 8 6 15 16 13 6 4 5 8 8 7 5 4 4 5 3 3 4 4 4
18 17 17 18 15 14 16 16 17 17 17 18 17 18 16 11 12 13 17 13 16 11 11 8 7 13 12 11 7 5 7 7 4 4 4 4 4 3 3 3 5 3 1
17 16 19 17 16 16 17 18 15 16 15 14 14 15 10 9 8 8 16 19 15 12 9 12 16 15 14 9 10 9 6 5 4 4 4 3 3 4 4 3 4 6 4
20 18 17 19 19 18 15 12 15 13 13 14 14 11 10 12 12 8 10 12 19 14 17 12 10 9 8 9 5 3 3 5 5 4 4 3 4 3 3 3 3 3 3
20 21 25 22 25 20 15 11 10 15 15 12 12 13 15 14 13 14 14 13 12 13 14 10 8 7 8 6 5 5 3 4 4 4 4 4 3 4 2 2 1 1 3
21 20 18 8 8 13 10 7 7 10 16 19 17 15 11 17 19 18 21 23 23 18 10 10 9 8 8 6 5 3 4 4 4 5 4 4 4 5 4 3 2 3 2
20 15 10 5 10 12 10 10 9 10 30 22 21 22 19 19 20 22 24 24 19 11 8 7 7 7 8 7 5 5 5 4 4 4 4 4 5 4 5 4 4 4 4
15 5 8 4 10 10 10 12 12 13 14 11 18 14 20 21 21 21 20 15 7 5 5 7 6 6 6 6 4 4 3 4 4 4 3 4 5 6 4 4 3 4 3
14 7 9 7 7 11 10 12 13 14 13 12 12 14 15 18 19 17 12 9 8 6 5 5 6 7 7 6 4 3 4 4 3 3 3 4 4 4 3 3 3 3 1
12 8 7 5 4 10 13 13 13 13 13 12 11 10 9 12 11 7 6 6 6 5 5 5 5 5 6 5 4 5 4 4 3 2 4 3 4 3 3 4 4 4 4
8 6 4 4 7 11 13 13 12 13 13 11 10 8 10 10 9 10 10 10 7 6 6 7 7 6 5 5 4 4 4 3 3 4 1 2 4 1 3 3 2 2 2
7 6 3 9 13 12 13 12 13 14 14 13 9 5 10 12 11 11 10 9 9 10 8 8 8 7 7 6 5 4 3 3 3 4 2 2 1 3 3 3 3 2 1
7 9 7 10 13 13 14 13 13 14 14 13 12 12 12 11 10 9 9 8 8 8 8 7 7 7 6 5 5 4 4 2 3 3 2 0 4 3 3 3 4 2 1
8 1 11 12 12 13 13 14 12 14 14 13 13 12 12 10 10 11 9 8 9 9 8 8 8 8 6 6 5 5 4 3 3 3 2 0 2 3 4 5 5 6 3
7 3 12 13 12 13 15 14 14 14 14 13 13 12 11 11 11 10 10 9 10 10 11 8 8 10 11 12 10 9 7 7 6 6 6 8 9 10 7 7 7 7 6
13 13 13 12 13 13 13 13 13 13 13 12 13 12 11 11 10 10 9 10 10 10 11 9 11 15 14 11 11 9 9 10 10 10 8 8 8 8 8 9 11 7 8
Wind_Direction
232 227 250 263 286 284 260 270 266 266 260 262 269 252 261 266 231 227 223 226 221 210 204 195 200 194 173 195 191 176 190 135 183 13 91 73 72 126 134 202 153 175 168
229 233 231 218 235 258 272 267 258 267 269 268 263 264 254 250 239 225 223 220 218 206 198 203 192 191 177 189 199 178 167 186 191 152 120 133 112 48 59 80 300 211 149
252 246 236 237 234 255 275 281 257 265 269 265 268 267 258 248 249 222 221 215 219 202 196 194 188 185 187 178 200 154 166 182 143 125 137 129 112 151 114 112 70 90 97
260 261 248 230 252 266 268 278 278 266 266 270 261 263 264 254 249 239 214 213 214 204 198 188 181 186 176 184 181 167 174 183 144 133 120 136 133 125 93 161 186 133 150
283 278 273 252 237 251 262 270 269 264 263 263 268 267 269 250 254 244 206 210 202 197 197 177 173 177 171 175 155 174 172 168 161 141 136 136 158 133 182 203 161 119 40
281 271 268 268 261 251 263 271 270 273 269 266 265 266 264 265 245 243 191 201 198 196 185 169 179 159 139 124 101 96 166 172 150 141 156 175 180 162 174 179 137 149 196
286 283 280 276 268 257 261 266 266 268 265 263 264 260 261 266 250 215 185 183 185 187 179 164 157 149 140 132 115 114 96 95 100 149 175 180 167 175 165 166 164 186 189
286 286 287 288 285 279 272 269 263 262 266 265 266 266 259 264 234 204 177 180 178 182 169 165 170 155 160 150 149 153 156 150 162 169 172 173 189 185 189 165 165 133 91
285 279 278 272 269 267 263 257 248 254 264 268 265 269 258 256 216 188 169 176 175 174 161 170 163 160 157 152 156 161 172 123 86 85 100 112 114 211 164 123 146 156 130
285 277 271 269 265 261 254 255 256 256 259 255 265 262 258 246 196 183 174 164 170 160 158 162 148 157 162 162 167 167 175 157 149 143 126 102 133 132 163 169 173 180 154
276 266 269 268 264 257 251 241 240 250 251 255 260 253 252 236 191 190 155 163 158 161 159 147 141 153 166 163 137 176 166 151 159 156 168 153 164 154 175 175 182 197 174
276 277 274 270 262 263 239 238 240 239 247 248 250 254 241 208 177 202 136 168 145 151 148 149 125 133 131 130 134 116 144 149 148 144 151 157 157 173 166 171 165 196 9
280 271 272 266 262 258 249 244 240 242 239 248 240 233 188 134 124 128 141 137 129 133 133 121 127 123 117 100 123 134 155 143 171 146 146 118 120 129 132 128 130 137 131
282 275 268 260 250 245 242 241 241 232 233 228 229 183 144 129 118 138 111 96 87 92 104 117 132 124 122 116 115 147 209 160 149 142 129 132 125 132 145 150 155 165 195
282 276 268 250 235 232 230 232 234 235 225 209 169 142 131 152 157 138 128 120 122 118 117 125 127 136 133 148 151 166 179 127 124 122 124 158 152 125 111 130 149 174 206
278 275 278 275 179 197 197 183 32 196 162 146 143 142 132 120 119 107 106 108 120 136 129 139 148 151 143 140 155 141 123 136 149 138 152 183 154 152 147 164 176 209 219
281 291 315 74 123 138 147 149 113 85 70 67 93 97 91 113 105 109 117 128 140 135 139 141 145 142 137 138 162 176 175 167 157 193 165 180 140 138 152 165 199 204 218
305 309 351 3 113 117 131 112 111 107 92 72 40 85 105 109 111 113 116 110 114 86 127 132 128 121 131 148 160 167 145 135 168 183 165 144 150 146 168 173 199 240 221
308 16 351 357 115 117 112 100 88 86 91 102 99 70 77 94 111 122 127 127 148 129 134 133 135 146 153 144 145 163 157 144 163 159 147 162 156 151 174 197 191 204 205
310 8 308 324 164 124 100 106 104 106 106 102 102 104 113 115 117 123 103 108 98 96 100 99 127 123 126 115 151 157 144 136 150 167 178 173 159 156 182 192 180 166 193
308 338 253 185 119 109 108 114 114 108 109 105 107 107 101 113 95 81 70 59 56 77 63 74 73 65 86 114 132 132 143 140 151 112 113 111 100 149 205 143 150 197 224
319 296 215 148 115 114 115 113 105 105 109 109 104 84 93 84 81 80 71 60 51 52 48 59 63 55 49 39 24 85 102 85 77 141 145 73 183 243 158 130 153 201 67
268 251 137 105 104 108 102 103 106 108 109 101 97 87 81 79 80 76 71 62 60 55 47 54 58 52 46 43 38 28 69 74 75 50 117 15 278 184 187 159 143 159 202
233 303 114 111 106 110 109 111 106 93 96 97 88 82 82 83 82 80 76 70 68 63 55 54 53 49 40 39 30 27 25 18 40 78 171 185 107 100 104 82 67 86 79
143 155 103 106 102 104 100 100 98 96 95 90 91 90 88 85 83 79 78 75 74 71 64 58 56 52 49 47 42 38 18 26 43 53 43 78 68 62 60 73 70 60 49
131 106 101 102 103 101 101 102 98 92 90 92 91 87 87 86 84 83 81 77 75 69 66 58 56 57 55 48 40 34 41 53 60 56 68 70 75 74 74 73 67 65 60